TimeCDT,TemperatureF,Dew PointF,Humidity,Sea Level PressureIn,VisibilityMPH,Wind Direction,Wind SpeedMPH,Gust SpeedMPH,PrecipitationIn,Events,Conditions,WindDirDegrees,DateUTC
12:53 AM,57.0,39.9,53,30.19,10.0,North,19.6,-,N/A,,Clear,10,2013-04-20 05:53:00
1:53 AM,55.9,39.0,53,30.19,10.0,North,17.3,-,N/A,,Clear,10,2013-04-20 06:53:00
2:53 AM,55.9,42.1,60,30.19,10.0,NNE,19.6,-,N/A,,Clear,30,2013-04-20 07:53:00
3:53 AM,55.9,39.9,55,30.19,10.0,NE,17.3,24.2,N/A,,Clear,40,2013-04-20 08:53:00
4:53 AM,55.0,39.0,55,30.19,10.0,NE,15.0,-,N/A,,Clear,50,2013-04-20 09:53:00
5:53 AM,55.0,39.9,57,30.20,10.0,NE,15.0,-,N/A,,Clear,50,2013-04-20 10:53:00
6:53 AM,54.0,39.9,59,30.22,10.0,ENE,15.0,-,N/A,,Clear,70,2013-04-20 11:53:00
7:53 AM,55.0,39.0,55,30.24,10.0,East,16.1,-,N/A,,Clear,80,2013-04-20 12:53:00
8:53 AM,55.9,39.0,53,30.25,10.0,ENE,15.0,-,N/A,,Clear,70,2013-04-20 13:53:00
9:53 AM,57.9,37.9,47,30.26,10.0,ENE,17.3,-,N/A,,Clear,70,2013-04-20 14:53:00
10:53 AM,61.0,39.0,44,30.26,10.0,ENE,15.0,-,N/A,,Clear,60,2013-04-20 15:53:00
11:53 AM,62.1,36.0,38,30.24,10.0,East,15.0,-,N/A,,Clear,80,2013-04-20 16:53:00
12:53 PM,64.0,37.0,37,30.22,10.0,ENE,10.4,-,N/A,,Clear,60,2013-04-20 17:53:00
1:53 PM,64.0,36.0,35,30.19,10.0,NE,5.8,-,N/A,,Clear,50,2013-04-20 18:53:00
2:53 PM,66.0,37.9,36,30.17,10.0,ENE,5.8,-,N/A,,Clear,60,2013-04-20 19:53:00
3:53 PM,66.9,39.0,36,30.14,10.0,ENE,5.8,-,N/A,,Clear,70,2013-04-20 20:53:00
4:53 PM,66.0,39.9,38,30.12,10.0,ESE,6.9,-,N/A,,Clear,120,2013-04-20 21:53:00
5:53 PM,64.9,39.0,39,30.13,10.0,Calm,Calm,-,N/A,,Clear,0,2013-04-20 22:53:00
6:53 PM,64.9,39.9,40,30.12,10.0,SE,3.5,-,N/A,,Clear,140,2013-04-20 23:53:00
7:53 PM,62.1,43.0,50,30.14,10.0,ESE,5.8,-,N/A,,Clear,120,2013-04-21 00:53:00
8:53 PM,61.0,43.0,52,30.16,10.0,SE,4.6,-,N/A,,Clear,140,2013-04-21 01:53:00
9:53 PM,59.0,46.0,62,30.19,10.0,SSE,4.6,-,N/A,,Clear,160,2013-04-21 02:53:00
10:53 PM,60.1,45.0,57,30.19,10.0,Calm,Calm,-,N/A,,Clear,0,2013-04-21 03:53:00
11:53 PM,60.1,44.1,55,30.18,10.0,Calm,Calm,-,N/A,,Clear,0,2013-04-21 04:53:00